Time,TemperatureF,DewpointF,PressureIn,WindDirection,WindDirectionDegrees,WindSpeedMPH,WindSpeedGustMPH,Humidity,HourlyPrecipIn,Conditions,Clouds,dailyrainin,SoftwareType,DateUTC
2013-06-13 00:01:00,60.4,55.2,29.78,NE,47,0.0,0.0,83,0.00,CLR,,0.00,WeatherDisplay:10.37,2013-06-13 04:01:00,
2013-06-13 00:04:00,60.4,55.2,29.78,NE,47,0.0,0.0,83,0.00,CLR,,0.00,WeatherDisplay:10.37,2013-06-13 04:04:00,
2013-06-13 00:09:00,60.2,55.0,29.77,NE,47,0.0,0.0,83,0.00,CLR,,0.00,WeatherDisplay:10.37,2013-06-13 04:09:00,
2013-06-13 00:14:00,60.2,54.3,29.77,NE,47,0.0,0.0,81,0.00,CLR,,0.00,WeatherDisplay:10.37,2013-06-13 04:14:00,
2013-06-13 00:20:00,60.2,54.3,29.78,NE,47,0.0,0.0,81,0.00,CLR,,0.00,WeatherDisplay:10.37,2013-06-13 04:20:00,
2013-06-13 00:25:00,60.1,54.2,29.78,NE,47,0.0,0.0,81,0.00,CLR,,0.00,WeatherDisplay:10.37,2013-06-13 04:25:00,
2013-06-13 00:30:00,60.4,55.5,29.78,NE,47,0.0,0.0,84,0.00,CLR,,0.00,WeatherDisplay:10.37,2013-06-13 04:30:00,
2013-06-13 00:35:00,60.4,55.5,29.78,NE,47,0.0,0.0,84,0.00,CLR,,0.00,WeatherDisplay:10.37,2013-06-13 04:35:00,
2013-06-13 00:40:00,60.2,55.0,29.77,NE,47,0.0,0.0,83,0.00,CLR,,0.00,WeatherDisplay:10.37,2013-06-13 04:40:00,
2013-06-13 00:45:00,60.2,55.0,29.77,NE,47,0.0,0.0,83,0.00,CLR,,0.00,WeatherDisplay:10.37,2013-06-13 04:45:00,
2013-06-13 00:50:00,60.1,54.9,29.76,NE,47,0.0,0.0,83,0.00,CLR,,0.00,WeatherDisplay:10.37,2013-06-13 04:50:00,
2013-06-13 00:55:00,60.2,54.7,29.76,NE,47,0.0,0.0,82,0.00,CLR,,0.00,WeatherDisplay:10.37,2013-06-13 04:55:00,
2013-06-13 01:01:00,60.4,54.9,29.75,NE,47,0.0,0.0,82,0.00,CLR,,0.00,WeatherDisplay:10.37,2013-06-13 05:01:00,
2013-06-13 01:06:00,60.4,54.9,29.75,NE,45,0.0,0.0,82,0.00,CLR,,0.00,WeatherDisplay:10.37,2013-06-13 05:06:00,
2013-06-13 01:11:00,60.2,55.0,29.75,NE,40,0.0,0.0,83,0.00,CLR,,0.00,WeatherDisplay:10.37,2013-06-13 05:11:00,
2013-06-13 01:16:00,60.1,55.2,29.75,NE,40,0.0,0.0,84,0.00,CLR,,0.00,WeatherDisplay:10.37,2013-06-13 05:16:00,
2013-06-13 01:21:00,59.8,55.0,29.75,NE,40,0.0,0.0,84,0.00,CLR,,0.00,WeatherDisplay:10.37,2013-06-13 05:21:00,
2013-06-13 01:26:00,59.5,55.0,29.74,NE,40,0.0,0.0,85,0.00,CLR,,0.00,WeatherDisplay:10.37,2013-06-13 05:26:00,
2013-06-13 01:31:00,59.2,55.0,29.74,NE,40,0.0,0.0,86,0.00,CLR,,0.00,WeatherDisplay:10.37,2013-06-13 05:31:00,
2013-06-13 01:36:00,59.0,55.1,29.74,NE,40,0.0,0.0,87,0.00,CLR,,0.00,WeatherDisplay:10.37,2013-06-13 05:36:00,
2013-06-13 01:41:00,58.9,55.4,29.74,NE,40,0.0,0.0,88,0.00,CLR,,0.00,WeatherDisplay:10.37,2013-06-13 05:41:00,
2013-06-13 01:46:00,58.7,55.2,29.75,NE,40,0.0,0.0,88,0.00,CLR,,0.00,WeatherDisplay:10.37,2013-06-13 05:46:00,
2013-06-13 01:51:00,58.6,55.1,29.75,NE,40,0.0,0.0,88,0.00,CLR,,0.00,WeatherDisplay:10.37,2013-06-13 05:51:00,
2013-06-13 01:57:00,58.4,55.2,29.74,NE,40,0.0,0.0,89,0.00,CLR,,0.00,WeatherDisplay:10.37,2013-06-13 05:57:00,
2013-06-13 02:02:00,58.3,55.1,29.74,NE,40,0.0,0.0,89,0.00,CLR,,0.00,WeatherDisplay:10.37,2013-06-13 06:02:00,
2013-06-13 02:07:00,58.0,54.8,29.74,NE,40,0.0,0.0,89,0.00,CLR,,0.00,WeatherDisplay:10.37,2013-06-13 06:07:00,
2013-06-13 02:12:00,58.0,55.1,29.74,NE,40,0.0,0.0,90,0.00,CLR,,0.00,WeatherDisplay:10.37,2013-06-13 06:12:00,
2013-06-13 02:17:00,58.0,55.1,29.73,NE,40,0.0,0.0,90,0.00,CLR,,0.00,WeatherDisplay:10.37,2013-06-13 06:17:00,
2013-06-13 02:22:00,58.0,55.1,29.73,NE,40,0.0,0.0,90,0.00,CLR,,0.00,WeatherDisplay:10.37,2013-06-13 06:22:00,
2013-06-13 02:27:00,57.8,54.9,29.73,NE,40,0.0,0.0,90,0.00,CLR,,0.00,WeatherDisplay:10.37,2013-06-13 06:27:00,
2013-06-13 02:33:00,58.0,55.1,29.73,NE,40,0.0,0.0,90,0.00,CLR,,0.00,WeatherDisplay:10.37,2013-06-13 06:33:00,
2013-06-13 02:38:00,58.0,55.1,29.73,NE,40,0.0,0.0,90,0.00,CLR,,0.00,WeatherDisplay:10.37,2013-06-13 06:38:00,
2013-06-13 02:43:00,57.8,54.9,29.73,NE,40,0.0,0.0,90,0.00,CLR,,0.00,WeatherDisplay:10.37,2013-06-13 06:43:00,
2013-06-13 02:48:00,57.8,55.2,29.73,NE,40,0.0,0.0,91,0.00,CLR,,0.00,WeatherDisplay:10.37,2013-06-13 06:48:00,
2013-06-13 02:53:00,57.8,55.2,29.74,NE,40,0.0,0.0,91,0.00,CLR,,0.00,WeatherDisplay:10.37,2013-06-13 06:53:00,
2013-06-13 02:58:00,57.6,55.0,29.74,NE,40,0.0,0.0,91,0.00,CLR,,0.00,WeatherDisplay:10.37,2013-06-13 06:58:00,
2013-06-13 03:03:00,57.8,55.2,29.74,NE,40,0.0,0.0,91,0.00,CLR,,0.00,WeatherDisplay:10.37,2013-06-13 07:03:00,
2013-06-13 03:08:00,58.0,55.4,29.73,NE,40,0.0,0.0,91,0.00,CLR,,0.00,WeatherDisplay:10.37,2013-06-13 07:08:00,
2013-06-13 03:14:00,58.0,55.4,29.74,NE,40,0.0,0.0,91,0.00,CLR,,0.00,WeatherDisplay:10.37,2013-06-13 07:14:00,
2013-06-13 03:19:00,58.0,55.4,29.73,NE,40,0.0,0.0,91,0.00,CLR,,0.00,WeatherDisplay:10.37,2013-06-13 07:19:00,
2013-06-13 03:24:00,58.0,55.4,29.73,NE,40,0.0,0.0,91,0.00,CLR,,0.00,WeatherDisplay:10.37,2013-06-13 07:24:00,
2013-06-13 03:29:00,58.1,55.2,29.73,NE,40,0.0,0.0,90,0.00,CLR,,0.00,WeatherDisplay:10.37,2013-06-13 07:29:00,
2013-06-13 03:34:00,58.6,55.1,29.73,NE,40,0.0,0.0,88,0.00,CLR,,0.00,WeatherDisplay:10.37,2013-06-13 07:34:00,
2013-06-13 03:39:00,59.2,55.0,29.73,NE,40,0.0,0.0,86,0.00,CLR,,0.00,WeatherDisplay:10.37,2013-06-13 07:39:00,
2013-06-13 03:44:00,59.9,54.7,29.72,NE,40,0.0,0.0,83,0.00,CLR,,0.00,WeatherDisplay:10.37,2013-06-13 07:44:00,
2013-06-13 03:49:00,60.2,55.3,29.72,NE,41,0.0,0.0,84,0.00,CLR,,0.00,WeatherDisplay:10.37,2013-06-13 07:49:00,
2013-06-13 03:54:00,59.9,55.7,29.72,NE,41,0.0,0.0,86,0.00,CLR,,0.00,WeatherDisplay:10.37,2013-06-13 07:54:00,
2013-06-13 03:59:00,59.9,55.4,29.72,NE,41,0.0,0.0,85,0.00,CLR,,0.00,WeatherDisplay:10.37,2013-06-13 07:59:00,
2013-06-13 04:04:00,60.1,55.2,29.72,NE,41,0.0,0.0,84,0.00,CLR,,0.00,WeatherDisplay:10.37,2013-06-13 08:04:00,
2013-06-13 04:10:00,60.4,55.5,29.71,NE,41,0.0,0.0,84,0.00,CLR,,0.00,WeatherDisplay:10.37,2013-06-13 08:10:00,
2013-06-13 04:15:00,60.4,55.2,29.71,NE,41,0.0,0.0,83,0.00,CLR,,0.00,WeatherDisplay:10.37,2013-06-13 08:15:00,
2013-06-13 04:20:00,60.9,55.4,29.71,NE,41,0.0,0.0,82,0.00,CLR,,0.00,WeatherDisplay:10.37,2013-06-13 08:20:00,
2013-06-13 04:25:00,61.2,55.3,29.71,NE,41,0.0,0.0,81,0.00,CLR,,0.00,WeatherDisplay:10.37,2013-06-13 08:25:00,
2013-06-13 04:31:00,61.3,56.1,29.71,NE,41,0.0,0.0,83,0.00,CLR,,0.00,WeatherDisplay:10.37,2013-06-13 08:31:00,
2013-06-13 04:36:00,61.2,56.3,29.71,NE,41,0.0,0.0,84,0.00,CLR,,0.00,WeatherDisplay:10.37,2013-06-13 08:36:00,
2013-06-13 04:41:00,61.0,56.8,29.71,NE,41,0.0,0.0,86,0.00,CLR,,0.00,WeatherDisplay:10.37,2013-06-13 08:41:00,
2013-06-13 04:46:00,60.7,56.2,29.71,NE,41,0.0,0.0,85,0.00,CLR,,0.00,WeatherDisplay:10.37,2013-06-13 08:46:00,
2013-06-13 04:51:00,60.5,55.6,29.71,NE,41,0.0,0.0,84,0.00,CLR,,0.00,WeatherDisplay:10.37,2013-06-13 08:51:00,
2013-06-13 04:56:00,60.7,56.2,29.71,NE,41,0.0,0.0,85,0.00,CLR,,0.00,WeatherDisplay:10.37,2013-06-13 08:56:00,
2013-06-13 05:01:00,60.2,56.3,29.72,NE,41,0.0,0.0,87,0.00,CLR,,0.00,WeatherDisplay:10.37,2013-06-13 09:01:00,
2013-06-13 05:07:00,59.8,56.2,29.72,NE,41,0.0,0.0,88,0.00,CLR,,0.00,WeatherDisplay:10.37,2013-06-13 09:07:00,
2013-06-13 05:12:00,59.3,55.7,29.71,NE,41,0.0,0.0,88,0.00,CLR,,0.00,WeatherDisplay:10.37,2013-06-13 09:12:00,
2013-06-13 05:17:00,59.3,56.1,29.72,NE,41,0.0,0.0,89,0.00,CLR,,0.00,WeatherDisplay:10.37,2013-06-13 09:17:00,
2013-06-13 05:22:00,59.5,56.3,29.72,NE,41,0.0,0.0,89,0.00,CLR,,0.00,WeatherDisplay:10.37,2013-06-13 09:22:00,
2013-06-13 05:27:00,59.6,56.4,29.72,NE,41,0.0,0.0,89,0.00,CLR,,0.00,WeatherDisplay:10.37,2013-06-13 09:27:00,
2013-06-13 05:32:00,59.9,56.3,29.70,South,184,0.0,0.0,88,0.00,CLR,,0.00,WeatherDisplay:10.37,2013-06-13 09:32:00,
2013-06-13 05:37:00,60.5,56.0,29.68,SE,140,0.0,0.0,85,0.00,CLR,,0.00,WeatherDisplay:10.37,2013-06-13 09:37:00,
2013-06-13 05:42:00,60.5,56.0,29.70,SE,141,0.0,0.0,85,0.00,CLR,,0.00,WeatherDisplay:10.37,2013-06-13 09:42:00,
2013-06-13 05:48:00,60.7,56.2,29.70,SE,143,0.0,0.0,85,0.00,CLR,,0.00,WeatherDisplay:10.37,2013-06-13 09:48:00,
2013-06-13 05:53:00,60.7,56.2,29.68,SE,143,0.0,0.0,85,0.00,CLR,,0.00,WeatherDisplay:10.37,2013-06-13 09:53:00,
2013-06-13 05:58:00,60.7,56.2,29.68,SE,136,0.0,0.0,85,0.00,CLR,,0.00,WeatherDisplay:10.37,2013-06-13 09:58:00,
2013-06-13 06:03:00,60.7,56.2,29.68,SE,136,0.0,0.0,85,0.01,RA,,0.01,WeatherDisplay:10.37,2013-06-13 10:03:00,
2013-06-13 06:08:00,60.7,55.8,29.68,SE,136,0.0,0.0,84,0.01,RA,,0.01,WeatherDisplay:10.37,2013-06-13 10:08:00,
2013-06-13 06:13:00,60.5,56.0,29.67,SE,136,0.0,0.0,85,0.01,CLR,,0.01,WeatherDisplay:10.37,2013-06-13 10:13:00,
2013-06-13 06:19:00,60.5,56.0,29.67,SE,127,0.0,0.0,85,0.01,CLR,,0.01,WeatherDisplay:10.37,2013-06-13 10:19:00,
2013-06-13 06:24:00,60.4,55.9,29.67,SE,128,0.0,0.0,85,0.01,CLR,,0.01,WeatherDisplay:10.37,2013-06-13 10:24:00,
2013-06-13 06:29:00,60.4,56.2,29.67,SE,130,0.0,0.0,86,0.01,CLR,,0.01,WeatherDisplay:10.37,2013-06-13 10:29:00,
2013-06-13 06:35:00,60.2,56.0,29.68,South,189,0.0,0.0,86,0.01,CLR,,0.01,WeatherDisplay:10.37,2013-06-13 10:35:00,
2013-06-13 06:40:00,60.2,56.0,29.67,NE,38,0.7,2.3,86,0.01,CLR,,0.01,WeatherDisplay:10.37,2013-06-13 10:40:00,
2013-06-13 06:45:00,60.2,56.0,29.67,SSE,155,0.0,0.0,86,0.01,CLR,,0.01,WeatherDisplay:10.37,2013-06-13 10:45:00,
2013-06-13 06:50:00,60.2,56.0,29.67,SSE,152,0.0,0.0,86,0.02,RA,,0.02,WeatherDisplay:10.37,2013-06-13 10:50:00,
2013-06-13 06:55:00,60.2,56.0,29.66,ESE,107,0.0,0.0,86,0.02,RA,,0.02,WeatherDisplay:10.37,2013-06-13 10:55:00,
2013-06-13 07:00:00,60.2,55.7,29.65,East,83,0.0,0.0,85,0.01,CLR,,0.02,WeatherDisplay:10.37,2013-06-13 11:00:00,
2013-06-13 07:05:00,60.2,55.7,29.64,East,85,0.0,0.0,85,0.01,CLR,,0.02,WeatherDisplay:10.37,2013-06-13 11:05:00,
2013-06-13 07:10:00,60.4,55.5,29.64,East,80,0.7,8.1,84,0.01,CLR,,0.02,WeatherDisplay:10.37,2013-06-13 11:10:00,
2013-06-13 07:16:00,60.5,55.0,29.64,North,359,4.3,5.8,82,0.01,CLR,,0.02,WeatherDisplay:10.37,2013-06-13 11:16:00,
2013-06-13 07:21:00,60.7,55.2,29.65,SSE,152,5.7,11.5,82,0.01,CLR,,0.02,WeatherDisplay:10.37,2013-06-13 11:21:00,
2013-06-13 07:26:00,60.9,55.4,29.67,South,175,2.9,6.9,82,0.01,CLR,,0.02,WeatherDisplay:10.37,2013-06-13 11:26:00,
2013-06-13 07:31:00,61.0,55.1,29.68,SSW,195,0.0,0.0,81,0.01,CLR,,0.02,WeatherDisplay:10.37,2013-06-13 11:31:00,
2013-06-13 07:36:00,60.9,55.0,29.67,SSW,195,0.0,0.0,81,0.01,CLR,,0.02,WeatherDisplay:10.37,2013-06-13 11:36:00,
2013-06-13 07:41:00,61.0,55.5,29.66,South,175,0.0,0.0,82,0.01,CLR,,0.02,WeatherDisplay:10.37,2013-06-13 11:41:00,
2013-06-13 07:47:00,61.0,55.5,29.66,South,175,0.0,0.0,82,0.01,CLR,,0.02,WeatherDisplay:10.37,2013-06-13 11:47:00,
2013-06-13 07:52:00,61.0,55.1,29.66,South,178,0.0,0.0,81,0.00,CLR,,0.02,WeatherDisplay:10.37,2013-06-13 11:52:00,
2013-06-13 07:57:00,61.2,55.3,29.66,South,178,0.0,0.0,81,0.00,CLR,,0.02,WeatherDisplay:10.37,2013-06-13 11:57:00,
2013-06-13 08:02:00,61.2,55.7,29.67,East,95,0.0,0.0,82,0.00,CLR,,0.02,WeatherDisplay:10.37,2013-06-13 12:02:00,
2013-06-13 08:07:00,61.2,55.7,29.66,SE,138,0.0,0.0,82,0.00,CLR,,0.02,WeatherDisplay:10.37,2013-06-13 12:07:00,
2013-06-13 08:12:00,61.2,55.7,29.66,SE,133,0.0,0.0,82,0.00,CLR,,0.02,WeatherDisplay:10.37,2013-06-13 12:12:00,
2013-06-13 08:17:00,61.0,55.5,29.66,ESE,106,0.4,0.0,82,0.00,CLR,,0.02,WeatherDisplay:10.37,2013-06-13 12:17:00,
2013-06-13 08:22:00,61.2,55.7,29.65,ESE,106,0.0,0.0,82,0.00,CLR,,0.02,WeatherDisplay:10.37,2013-06-13 12:22:00,
2013-06-13 08:28:00,61.0,55.8,29.66,SSE,155,0.0,0.0,83,0.00,CLR,,0.02,WeatherDisplay:10.37,2013-06-13 12:28:00,
2013-06-13 08:33:00,61.0,55.5,29.65,ESE,114,0.0,0.0,82,0.00,CLR,,0.02,WeatherDisplay:10.37,2013-06-13 12:33:00,
2013-06-13 08:38:00,61.2,55.3,29.64,East,85,0.0,0.0,81,0.01,RA,,0.03,WeatherDisplay:10.37,2013-06-13 12:38:00,
2013-06-13 08:43:00,61.2,55.7,29.63,ESE,119,0.0,0.0,82,0.01,RA,,0.03,WeatherDisplay:10.37,2013-06-13 12:43:00,
2013-06-13 08:48:00,61.0,56.1,29.64,East,96,1.4,4.6,84,0.01,CLR,,0.03,WeatherDisplay:10.37,2013-06-13 12:48:00,
2013-06-13 08:53:00,60.9,56.0,29.63,NE,49,0.0,0.0,84,0.01,CLR,,0.04,WeatherDisplay:10.37,2013-06-13 12:53:00,
2013-06-13 08:58:00,60.9,56.0,29.63,East,86,0.0,0.0,84,0.03,RA,,0.05,WeatherDisplay:10.37,2013-06-13 12:58:00,
2013-06-13 09:03:00,60.9,55.7,29.64,SE,145,0.0,4.6,83,0.04,RA,,0.06,WeatherDisplay:10.37,2013-06-13 13:03:00,
2013-06-13 09:08:00,60.9,56.0,29.66,SW,227,2.8,4.6,84,0.05,RA,,0.07,WeatherDisplay:10.37,2013-06-13 13:08:00,
2013-06-13 09:13:00,60.7,56.2,29.63,North,0,0.0,0.0,85,0.08,RA,,0.10,WeatherDisplay:10.37,2013-06-13 13:13:00,
2013-06-13 09:18:00,60.5,56.9,29.63,ENE,71,0.0,0.0,88,0.09,RA,,0.11,WeatherDisplay:10.37,2013-06-13 13:18:00,
2013-06-13 09:23:00,60.2,56.0,29.64,ESE,123,0.1,3.5,86,0.09,RA,,0.12,WeatherDisplay:10.37,2013-06-13 13:23:00,
2013-06-13 09:28:00,60.2,56.3,29.64,SSE,147,0.0,0.0,87,0.10,RA,,0.12,WeatherDisplay:10.37,2013-06-13 13:28:00,
2013-06-13 09:34:00,60.1,55.9,29.62,East,85,2.2,8.1,86,0.10,,,0.12,WeatherDisplay:10.37,2013-06-13 13:34:00,
2013-06-13 09:39:00,60.1,55.9,29.61,ENE,71,1.0,4.6,86,0.09,CLR,,0.12,WeatherDisplay:10.37,2013-06-13 13:39:00,
2013-06-13 09:44:00,59.9,55.7,29.60,ENE,69,0.0,2.3,86,0.10,RA,,0.13,WeatherDisplay:10.37,2013-06-13 13:44:00,
2013-06-13 09:49:00,59.9,55.7,29.61,East,82,0.2,5.8,86,0.11,RA,,0.14,WeatherDisplay:10.37,2013-06-13 13:49:00,
2013-06-13 09:54:00,59.9,56.0,29.61,SE,126,0.0,0.0,87,0.12,RA,,0.15,WeatherDisplay:10.37,2013-06-13 13:54:00,
2013-06-13 09:59:00,59.9,56.0,29.60,East,89,0.0,0.0,87,0.11,RA,,0.16,WeatherDisplay:10.37,2013-06-13 13:59:00,
2013-06-13 10:04:00,59.8,56.2,29.61,SSE,150,0.0,0.0,88,0.12,RA,,0.18,WeatherDisplay:10.37,2013-06-13 14:04:00,
2013-06-13 10:10:00,59.6,56.0,29.62,SSE,152,0.0,0.0,88,0.14,RA,,0.21,WeatherDisplay:10.37,2013-06-13 14:10:00,
2013-06-13 10:15:00,59.3,56.1,29.61,SE,145,2.0,2.3,89,0.18,RA,,0.28,WeatherDisplay:10.37,2013-06-13 14:15:00,
2013-06-13 10:20:00,59.2,56.3,29.60,East,89,0.0,0.0,90,0.22,RA,,0.35,WeatherDisplay:10.37,2013-06-13 14:20:00,
2013-06-13 10:25:00,58.9,56.3,29.59,SE,140,3.2,11.5,91,0.34,RA,,0.45,WeatherDisplay:10.37,2013-06-13 14:25:00,
2013-06-13 10:30:00,58.7,56.1,29.58,ESE,113,0.0,2.3,91,0.37,RA,,0.49,WeatherDisplay:10.37,2013-06-13 14:30:00,
2013-06-13 10:35:00,58.6,56.3,29.57,ESE,121,3.0,10.4,92,0.39,RA,,0.51,WeatherDisplay:10.37,2013-06-13 14:35:00,
2013-06-13 10:40:00,58.7,56.4,29.56,East,85,0.0,4.6,92,0.39,RA,,0.51,WeatherDisplay:10.37,2013-06-13 14:40:00,
2013-06-13 10:46:00,58.9,56.6,29.56,ENE,73,1.9,4.6,92,0.39,RA,,0.52,WeatherDisplay:10.37,2013-06-13 14:46:00,
2013-06-13 10:51:00,58.9,56.6,29.56,East,86,6.1,15.0,92,0.38,RA,,0.52,WeatherDisplay:10.37,2013-06-13 14:51:00,
2013-06-13 10:56:00,59.3,57.0,29.56,ENE,66,0.0,0.0,92,0.36,CLR,,0.52,WeatherDisplay:10.37,2013-06-13 14:56:00,
2013-06-13 11:01:00,59.5,57.2,29.56,East,95,3.4,11.5,92,0.36,RA,,0.53,WeatherDisplay:10.37,2013-06-13 15:01:00,
2013-06-13 11:06:00,60.2,57.9,29.55,SSE,150,1.2,8.1,92,0.34,RA,,0.53,WeatherDisplay:10.37,2013-06-13 15:06:00,
2013-06-13 11:11:00,60.2,57.9,29.56,ESE,103,7.2,16.1,92,0.29,,,0.53,WeatherDisplay:10.37,2013-06-13 15:11:00,
2013-06-13 11:16:00,60.4,57.8,29.55,ESE,112,3.4,8.0,91,0.24,CLR,,0.53,WeatherDisplay:10.37,2013-06-13 15:16:00,
2013-06-13 11:21:00,60.7,58.1,29.55,ESE,106,0.0,0.0,91,0.16,CLR,,0.53,WeatherDisplay:10.37,2013-06-13 15:21:00,
2013-06-13 11:27:00,61.0,58.0,29.55,SE,134,3.6,8.1,90,0.06,CLR,,0.53,WeatherDisplay:10.37,2013-06-13 15:27:00,
2013-06-13 11:32:00,60.7,57.1,29.55,ENE,73,2.1,10.4,88,0.03,CLR,,0.53,WeatherDisplay:10.37,2013-06-13 15:32:00,
2013-06-13 11:37:00,61.0,57.4,29.55,SE,126,4.5,12.7,88,0.02,CLR,,0.53,WeatherDisplay:10.37,2013-06-13 15:37:00,
2013-06-13 11:42:00,61.2,57.6,29.55,SSE,150,4.1,8.1,88,0.01,CLR,,0.53,WeatherDisplay:10.37,2013-06-13 15:42:00,
2013-06-13 11:47:00,61.2,57.0,29.54,SE,124,9.5,12.7,86,0.01,CLR,,0.53,WeatherDisplay:10.37,2013-06-13 15:47:00,
2013-06-13 11:52:00,61.5,57.9,29.53,SE,137,4.3,5.8,88,0.01,CLR,,0.53,WeatherDisplay:10.37,2013-06-13 15:52:00,
2013-06-13 11:57:00,61.5,57.6,29.53,ENE,69,3.0,16.1,87,0.01,CLR,,0.53,WeatherDisplay:10.37,2013-06-13 15:57:00,
2013-06-13 12:02:00,61.6,57.7,29.52,SSE,162,1.8,3.5,87,0.00,CLR,,0.53,WeatherDisplay:10.37,2013-06-13 16:02:00,
2013-06-13 12:08:00,61.6,57.4,29.52,ENE,68,0.8,4.6,86,0.00,CLR,,0.53,WeatherDisplay:10.37,2013-06-13 16:08:00,
2013-06-13 12:13:00,62.0,58.1,29.51,ESE,103,3.5,6.9,87,0.00,CLR,,0.53,WeatherDisplay:10.37,2013-06-13 16:13:00,
2013-06-13 12:18:00,62.1,57.9,29.50,ESE,114,2.9,6.9,86,0.00,CLR,,0.53,WeatherDisplay:10.37,2013-06-13 16:18:00,
2013-06-13 12:23:00,62.1,57.9,29.50,East,86,2.9,4.6,86,0.00,CLR,,0.53,WeatherDisplay:10.37,2013-06-13 16:23:00,
2013-06-13 12:28:00,62.7,58.5,29.50,ESE,110,0.3,7.0,86,0.00,CLR,,0.53,WeatherDisplay:10.37,2013-06-13 16:28:00,
2013-06-13 12:33:00,62.6,57.7,29.51,SSE,157,5.4,6.9,84,0.00,CLR,,0.53,WeatherDisplay:10.37,2013-06-13 16:33:00,
2013-06-13 12:39:00,62.9,58.3,29.50,ESE,112,5.0,11.5,85,0.00,CLR,,0.53,WeatherDisplay:10.37,2013-06-13 16:39:00,
2013-06-13 12:44:00,62.9,58.3,29.50,SE,136,3.2,6.9,85,0.00,CLR,,0.53,WeatherDisplay:10.37,2013-06-13 16:44:00,
2013-06-13 12:49:00,63.1,58.5,29.51,SE,143,4.5,8.0,85,0.00,CLR,,0.53,WeatherDisplay:10.37,2013-06-13 16:49:00,
2013-06-13 12:54:00,63.2,58.9,29.51,ESE,109,0.0,1.2,86,0.00,CLR,,0.53,WeatherDisplay:10.37,2013-06-13 16:54:00,
2013-06-13 12:59:00,63.1,58.8,29.50,East,80,2.8,4.0,86,0.00,CLR,,0.53,WeatherDisplay:10.37,2013-06-13 16:59:00,
2013-06-13 13:05:00,62.7,58.1,29.50,NE,34,1.5,12.7,85,0.00,CLR,,0.53,WeatherDisplay:10.37,2013-06-13 17:05:00,
2013-06-13 13:10:00,62.3,57.7,29.50,ENE,71,2.9,6.9,85,0.00,CLR,,0.53,WeatherDisplay:10.37,2013-06-13 17:10:00,
2013-06-13 13:15:00,62.0,57.4,29.51,SE,128,1.6,8.1,85,0.00,CLR,,0.53,WeatherDisplay:10.37,2013-06-13 17:15:00,
2013-06-13 13:20:00,61.8,57.9,29.51,East,86,3.0,6.9,87,0.00,CLR,,0.53,WeatherDisplay:10.37,2013-06-13 17:20:00,
2013-06-13 13:25:00,61.5,57.6,29.50,ESE,120,0.5,3.5,87,0.00,CLR,,0.53,WeatherDisplay:10.37,2013-06-13 17:25:00,
2013-06-13 13:30:00,61.5,57.9,29.50,East,82,4.5,9.2,88,0.00,CLR,,0.53,WeatherDisplay:10.37,2013-06-13 17:30:00,
2013-06-13 13:35:00,61.3,57.7,29.50,ENE,75,5.5,10.4,88,0.00,CLR,,0.53,WeatherDisplay:10.37,2013-06-13 17:35:00,
2013-06-13 13:40:00,61.3,58.0,29.49,SE,140,4.5,11.5,89,0.00,CLR,,0.53,WeatherDisplay:10.37,2013-06-13 17:40:00,
2013-06-13 13:45:00,61.2,57.6,29.49,SE,128,5.5,8.1,88,0.00,CLR,,0.53,WeatherDisplay:10.37,2013-06-13 17:45:00,
2013-06-13 13:50:00,61.2,57.9,29.50,ENE,75,0.0,8.1,89,0.00,CLR,,0.53,WeatherDisplay:10.37,2013-06-13 17:50:00,
2013-06-13 13:56:00,61.2,57.9,29.50,East,97,3.2,10.4,89,0.00,CLR,,0.53,WeatherDisplay:10.37,2013-06-13 17:56:00,
2013-06-13 14:01:00,61.2,58.2,29.49,SE,144,1.3,6.9,90,0.00,CLR,,0.53,WeatherDisplay:10.37,2013-06-13 18:01:00,
2013-06-13 14:06:00,61.0,58.0,29.49,East,83,3.2,5.8,90,0.00,CLR,,0.53,WeatherDisplay:10.37,2013-06-13 18:06:00,
2013-06-13 14:11:00,60.9,57.6,29.49,East,88,0.8,3.5,89,0.00,CLR,,0.53,WeatherDisplay:10.37,2013-06-13 18:11:00,
2013-06-13 14:16:00,60.9,57.9,29.49,NNE,28,2.8,6.9,90,0.00,CLR,,0.53,WeatherDisplay:10.37,2013-06-13 18:16:00,
2013-06-13 14:21:00,60.9,57.9,29.49,SSE,162,2.1,5.0,90,0.00,CLR,,0.53,WeatherDisplay:10.37,2013-06-13 18:21:00,
2013-06-13 14:27:00,60.9,57.9,29.49,SSE,164,1.6,4.6,90,0.00,CLR,,0.53,WeatherDisplay:10.37,2013-06-13 18:27:00,
2013-06-13 14:32:00,60.7,58.1,29.49,ENE,75,0.2,2.3,91,0.00,CLR,,0.53,WeatherDisplay:10.37,2013-06-13 18:32:00,
2013-06-13 14:37:00,60.7,57.7,29.48,ENE,72,1.4,5.8,90,0.00,CLR,,0.53,WeatherDisplay:10.37,2013-06-13 18:37:00,
2013-06-13 14:42:00,60.9,57.9,29.48,East,95,0.2,2.3,90,0.00,CLR,,0.53,WeatherDisplay:10.37,2013-06-13 18:42:00,
2013-06-13 14:47:00,60.9,57.9,29.47,East,82,0.9,7.0,90,0.00,CLR,,0.53,WeatherDisplay:10.37,2013-06-13 18:47:00,
2013-06-13 14:52:00,60.7,57.7,29.47,NE,37,1.3,4.6,90,0.00,CLR,,0.53,WeatherDisplay:10.37,2013-06-13 18:52:00,
2013-06-13 14:57:00,60.7,57.7,29.48,ENE,72,0.5,3.5,90,0.00,CLR,,0.53,WeatherDisplay:10.37,2013-06-13 18:57:00,
2013-06-13 15:02:00,60.7,57.7,29.48,ENE,66,0.9,3.5,90,0.00,CLR,,0.53,WeatherDisplay:10.37,2013-06-13 19:02:00,
2013-06-13 15:07:00,60.9,57.9,29.48,NE,54,0.9,3.5,90,0.00,CLR,,0.53,WeatherDisplay:10.37,2013-06-13 19:07:00,
2013-06-13 15:12:00,60.7,57.7,29.48,East,82,0.0,0.0,90,0.00,CLR,,0.53,WeatherDisplay:10.37,2013-06-13 19:12:00,
2013-06-13 15:17:00,60.7,57.7,29.48,NE,49,1.4,4.6,90,0.00,CLR,,0.53,WeatherDisplay:10.37,2013-06-13 19:17:00,
2013-06-13 15:22:00,60.5,57.6,29.48,ENE,71,4.2,4.2,90,0.00,CLR,,0.53,WeatherDisplay:10.37,2013-06-13 19:22:00,
2013-06-13 15:28:00,60.5,57.6,29.47,NE,48,1.9,9.2,90,0.00,CLR,,0.53,WeatherDisplay:10.37,2013-06-13 19:28:00,
2013-06-13 15:33:00,60.4,57.8,29.47,East,90,1.4,3.5,91,0.00,CLR,,0.53,WeatherDisplay:10.37,2013-06-13 19:33:00,
2013-06-13 15:38:00,60.5,57.9,29.47,NE,37,2.4,5.0,91,0.00,CLR,,0.53,WeatherDisplay:10.37,2013-06-13 19:38:00,
2013-06-13 15:43:00,60.5,58.2,29.46,ENE,73,5.3,10.4,92,0.00,CLR,,0.53,WeatherDisplay:10.37,2013-06-13 19:43:00,
2013-06-13 15:48:00,60.4,58.1,29.46,East,80,2.2,5.8,92,0.00,CLR,,0.53,WeatherDisplay:10.37,2013-06-13 19:48:00,
2013-06-13 15:53:00,60.4,58.1,29.45,ESE,116,4.8,5.8,92,0.00,CLR,,0.53,WeatherDisplay:10.37,2013-06-13 19:53:00,
2013-06-13 15:58:00,60.4,58.1,29.44,NE,44,5.0,7.0,92,0.00,CLR,,0.53,WeatherDisplay:10.37,2013-06-13 19:58:00,
2013-06-13 16:03:00,60.5,58.2,29.44,NE,49,2.4,8.1,92,0.00,CLR,,0.53,WeatherDisplay:10.37,2013-06-13 20:03:00,
2013-06-13 16:08:00,60.5,58.2,29.44,NE,56,1.0,5.8,92,0.00,CLR,,0.53,WeatherDisplay:10.37,2013-06-13 20:08:00,
2013-06-13 16:14:00,60.5,58.2,29.43,East,89,0.8,6.9,92,0.00,CLR,,0.53,WeatherDisplay:10.37,2013-06-13 20:14:00,
2013-06-13 16:19:00,60.5,58.2,29.44,ENE,61,2.4,4.6,92,0.00,CLR,,0.53,WeatherDisplay:10.37,2013-06-13 20:19:00,
2013-06-13 16:24:00,60.5,58.2,29.43,SE,128,3.8,5.8,92,0.00,CLR,,0.53,WeatherDisplay:10.37,2013-06-13 20:24:00,
2013-06-13 16:29:00,60.5,58.2,29.43,East,96,2.2,6.9,92,0.00,CLR,,0.53,WeatherDisplay:10.37,2013-06-13 20:29:00,
2013-06-13 16:35:00,60.5,58.2,29.42,NE,47,0.0,0.0,92,0.00,CLR,,0.53,WeatherDisplay:10.37,2013-06-13 20:35:00,
2013-06-13 16:40:00,60.4,58.1,29.42,NE,44,2.8,5.8,92,0.00,CLR,,0.53,WeatherDisplay:10.37,2013-06-13 20:40:00,
2013-06-13 16:45:00,60.4,58.4,29.41,East,90,3.3,6.9,93,0.00,CLR,,0.53,WeatherDisplay:10.37,2013-06-13 20:45:00,
2013-06-13 16:50:00,60.4,58.4,29.40,ENE,71,4.0,9.0,93,0.00,CLR,,0.53,WeatherDisplay:10.37,2013-06-13 20:50:00,
2013-06-13 16:55:00,60.4,58.4,29.40,North,0,3.5,12.7,93,0.00,CLR,,0.53,WeatherDisplay:10.37,2013-06-13 20:55:00,
2013-06-13 17:00:00,60.4,58.4,29.40,NE,56,3.7,12.7,93,0.00,CLR,,0.53,WeatherDisplay:10.37,2013-06-13 21:00:00,
2013-06-13 17:05:00,60.4,58.7,29.40,ENE,68,2.3,5.8,94,0.00,CLR,,0.53,WeatherDisplay:10.37,2013-06-13 21:05:00,
2013-06-13 17:11:00,60.4,58.7,29.39,East,86,2.3,5.8,94,0.00,CLR,,0.53,WeatherDisplay:10.37,2013-06-13 21:11:00,
2013-06-13 17:16:00,60.4,58.7,29.39,West,280,3.0,4.6,94,0.00,CLR,,0.53,WeatherDisplay:10.37,2013-06-13 21:16:00,
2013-06-13 17:21:00,60.4,58.7,29.39,NE,34,2.3,6.0,94,0.00,CLR,,0.53,WeatherDisplay:10.37,2013-06-13 21:21:00,
2013-06-13 17:26:00,60.4,58.7,29.39,NNE,31,0.1,1.2,94,0.00,CLR,,0.53,WeatherDisplay:10.37,2013-06-13 21:26:00,
2013-06-13 17:31:00,60.4,58.7,29.39,NE,37,3.4,7.0,94,0.00,CLR,,0.53,WeatherDisplay:10.37,2013-06-13 21:31:00,
2013-06-13 17:36:00,60.4,58.7,29.38,ENE,62,3.3,6.0,94,0.00,CLR,,0.53,WeatherDisplay:10.37,2013-06-13 21:36:00,
2013-06-13 17:41:00,60.4,59.0,29.38,NE,41,2.7,5.8,95,0.00,CLR,,0.53,WeatherDisplay:10.37,2013-06-13 21:41:00,
2013-06-13 17:46:00,60.4,59.0,29.41,NNW,329,6.7,7.0,95,0.00,CLR,,0.53,WeatherDisplay:10.37,2013-06-13 21:46:00,
2013-06-13 17:52:00,60.5,59.1,29.40,NW,319,3.5,8.1,95,0.03,RA,,0.59,WeatherDisplay:10.37,2013-06-13 21:52:00,
2013-06-13 17:57:00,60.5,59.1,29.40,North,354,3.3,4.6,95,0.15,RA,,0.68,WeatherDisplay:10.37,2013-06-13 21:57:00,
2013-06-13 18:02:00,60.5,59.1,29.41,NNW,337,0.5,1.2,95,0.17,RA,,0.71,WeatherDisplay:10.37,2013-06-13 22:02:00,
2013-06-13 18:07:00,60.5,59.1,29.41,NW,318,0.0,0.0,95,0.26,RA,,0.79,WeatherDisplay:10.37,2013-06-13 22:07:00,
2013-06-13 18:12:00,60.5,59.1,29.41,NW,312,0.0,0.0,95,0.38,RA,,0.92,WeatherDisplay:10.37,2013-06-13 22:12:00,
2013-06-13 18:17:00,60.5,59.1,29.40,ENE,69,0.0,0.0,95,0.41,RA,,0.94,WeatherDisplay:10.37,2013-06-13 22:17:00,
2013-06-13 18:22:00,60.7,59.3,29.40,North,4,2.9,4.6,95,0.41,RA,,0.94,WeatherDisplay:10.37,2013-06-13 22:22:00,
2013-06-13 18:28:00,60.7,59.3,29.40,North,0,0.0,5.8,95,0.41,,,0.94,WeatherDisplay:10.37,2013-06-13 22:28:00,
2013-06-13 18:33:00,60.7,59.3,29.40,NE,38,1.3,3.5,95,0.41,CLR,,0.94,WeatherDisplay:10.37,2013-06-13 22:33:00,
2013-06-13 18:38:00,60.4,59.0,29.40,NE,40,1.9,6.9,95,0.41,CLR,,0.94,WeatherDisplay:10.37,2013-06-13 22:38:00,
2013-06-13 18:43:00,60.2,58.8,29.39,NE,51,3.8,11.5,95,0.41,CLR,,0.94,WeatherDisplay:10.37,2013-06-13 22:43:00,
2013-06-13 18:48:00,60.2,58.8,29.39,NNE,23,3.3,5.8,95,0.41,CLR,,0.94,WeatherDisplay:10.37,2013-06-13 22:48:00,
2013-06-13 18:53:00,60.1,58.7,29.40,ENE,59,3.8,6.9,95,0.33,CLR,,0.94,WeatherDisplay:10.37,2013-06-13 22:53:00,
2013-06-13 18:58:00,59.9,58.5,29.40,North,0,3.5,11.5,95,0.25,CLR,,0.94,WeatherDisplay:10.37,2013-06-13 22:58:00,
2013-06-13 19:04:00,59.9,58.5,29.41,North,0,3.1,5.8,95,0.19,CLR,,0.94,WeatherDisplay:10.37,2013-06-13 23:04:00,
2013-06-13 19:09:00,59.9,58.5,29.41,North,356,1.4,6.0,95,0.11,CLR,,0.94,WeatherDisplay:10.37,2013-06-13 23:09:00,
2013-06-13 19:14:00,59.6,57.9,29.41,North,0,3.0,5.8,94,0.01,CLR,,0.94,WeatherDisplay:10.37,2013-06-13 23:14:00,
2013-06-13 19:19:00,59.5,57.8,29.42,North,7,5.6,10.4,94,0.00,CLR,,0.94,WeatherDisplay:10.37,2013-06-13 23:19:00,
2013-06-13 19:24:00,59.5,57.8,29.42,NNE,31,6.7,11.0,94,0.00,CLR,,0.94,WeatherDisplay:10.37,2013-06-13 23:24:00,
2013-06-13 19:29:00,59.3,57.6,29.42,North,0,6.0,11.5,94,0.00,CLR,,0.94,WeatherDisplay:10.37,2013-06-13 23:29:00,
2013-06-13 19:34:00,59.2,57.5,29.41,North,4,7.0,11.5,94,0.00,CLR,,0.94,WeatherDisplay:10.37,2013-06-13 23:34:00,
2013-06-13 19:40:00,59.0,57.6,29.41,North,354,8.7,12.7,95,0.00,CLR,,0.94,WeatherDisplay:10.37,2013-06-13 23:40:00,
2013-06-13 19:45:00,59.0,57.3,29.41,North,357,5.8,10.4,94,0.00,CLR,,0.94,WeatherDisplay:10.37,2013-06-13 23:45:00,
2013-06-13 19:50:00,59.0,57.3,29.41,North,0,4.6,8.1,94,0.00,CLR,,0.94,WeatherDisplay:10.37,2013-06-13 23:50:00,
2013-06-13 19:55:00,58.9,57.2,29.42,North,0,6.5,10.4,94,0.00,CLR,,0.94,WeatherDisplay:10.37,2013-06-13 23:55:00,
2013-06-13 20:00:00,58.7,57.0,29.42,North,6,5.8,8.1,94,0.00,CLR,,0.94,WeatherDisplay:10.37,2013-06-14 00:00:00,
2013-06-13 20:05:00,58.7,57.0,29.42,North,0,4.7,6.9,94,0.00,CLR,,0.94,WeatherDisplay:10.37,2013-06-14 00:05:00,
2013-06-13 20:10:00,58.6,56.9,29.42,North,11,5.1,12.7,94,0.00,CLR,,0.94,WeatherDisplay:10.37,2013-06-14 00:10:00,
2013-06-13 20:15:00,58.6,56.9,29.41,ENE,78,4.8,8.1,94,0.00,CLR,,0.94,WeatherDisplay:10.37,2013-06-14 00:15:00,
2013-06-13 20:21:00,58.6,56.9,29.41,NNE,25,3.7,6.9,94,0.00,CLR,,0.94,WeatherDisplay:10.37,2013-06-14 00:21:00,
2013-06-13 20:26:00,58.4,56.4,29.41,ENE,73,5.0,11.5,93,0.00,CLR,,0.94,WeatherDisplay:10.37,2013-06-14 00:26:00,
2013-06-13 20:31:00,58.4,56.4,29.41,NNE,13,2.9,6.9,93,0.00,CLR,,0.94,WeatherDisplay:10.37,2013-06-14 00:31:00,
2013-06-13 20:36:00,58.4,56.4,29.41,North,3,1.1,5.8,93,0.00,CLR,,0.94,WeatherDisplay:10.37,2013-06-14 00:36:00,
2013-06-13 20:41:00,58.4,56.4,29.41,NE,38,5.6,11.5,93,0.00,CLR,,0.94,WeatherDisplay:10.37,2013-06-14 00:41:00,
2013-06-13 20:46:00,58.4,56.4,29.41,North,357,6.1,6.1,93,0.00,CLR,,0.94,WeatherDisplay:10.37,2013-06-14 00:46:00,
2013-06-13 20:52:00,58.3,56.3,29.41,North,7,5.9,11.5,93,0.00,CLR,,0.94,WeatherDisplay:10.37,2013-06-14 00:52:00,
2013-06-13 20:57:00,58.3,56.0,29.41,North,4,4.3,6.9,92,0.00,CLR,,0.94,WeatherDisplay:10.37,2013-06-14 00:57:00,
2013-06-13 21:02:00,58.3,56.0,29.42,ENE,66,0.7,2.3,92,0.00,CLR,,0.94,WeatherDisplay:10.37,2013-06-14 01:02:00,
2013-06-13 21:07:00,58.3,56.0,29.43,NE,37,0.3,3.5,92,0.00,CLR,,0.94,WeatherDisplay:10.37,2013-06-14 01:07:00,
2013-06-13 21:12:00,58.3,56.0,29.43,ENE,61,2.6,6.9,92,0.00,CLR,,0.94,WeatherDisplay:10.37,2013-06-14 01:12:00,
2013-06-13 21:17:00,58.3,56.0,29.43,NNE,32,3.1,6.9,92,0.00,CLR,,0.94,WeatherDisplay:10.37,2013-06-14 01:17:00,
2013-06-13 21:22:00,58.1,55.5,29.43,North,359,7.7,13.8,91,0.00,CLR,,0.94,WeatherDisplay:10.37,2013-06-14 01:22:00,
2013-06-13 21:27:00,58.1,55.5,29.43,East,86,1.8,6.9,91,0.00,CLR,,0.94,WeatherDisplay:10.37,2013-06-14 01:27:00,
2013-06-13 21:32:00,58.1,55.5,29.43,NNE,20,2.7,3.5,91,0.01,RA,,0.95,WeatherDisplay:10.37,2013-06-14 01:32:00,
2013-06-13 21:37:00,58.0,55.4,29.43,NE,34,3.4,7.0,91,0.01,RA,,0.95,WeatherDisplay:10.37,2013-06-14 01:37:00,
2013-06-13 21:42:00,58.0,55.4,29.43,North,0,3.0,6.9,91,0.01,,,0.95,WeatherDisplay:10.37,2013-06-14 01:42:00,
2013-06-13 21:47:00,57.8,55.2,29.44,North,350,2.3,5.8,91,0.02,RA,,0.96,WeatherDisplay:10.37,2013-06-14 01:47:00,
2013-06-13 21:53:00,57.6,55.0,29.44,ENE,71,2.6,4.6,91,0.02,RA,,0.96,WeatherDisplay:10.37,2013-06-14 01:53:00,
2013-06-13 21:58:00,57.5,54.9,29.44,North,4,1.0,8.1,91,0.02,CLR,,0.96,WeatherDisplay:10.37,2013-06-14 01:58:00,
2013-06-13 22:03:00,57.5,54.9,29.45,North,356,5.3,8.1,91,0.02,CLR,,0.96,WeatherDisplay:10.37,2013-06-14 02:03:00,
2013-06-13 22:08:00,57.3,54.7,29.45,ENE,68,2.9,5.8,91,0.02,CLR,,0.96,WeatherDisplay:10.37,2013-06-14 02:08:00,
2013-06-13 22:13:00,57.2,54.6,29.45,North,4,5.9,10.4,91,0.03,RA,,0.97,WeatherDisplay:10.37,2013-06-14 02:13:00,
2013-06-13 22:18:00,57.0,54.4,29.46,North,0,3.0,6.9,91,0.03,RA,,0.97,WeatherDisplay:10.37,2013-06-14 02:18:00,
2013-06-13 22:24:00,56.9,54.3,29.46,NE,47,3.9,10.4,91,0.03,CLR,,0.97,WeatherDisplay:10.37,2013-06-14 02:24:00,
2013-06-13 22:29:00,56.7,54.1,29.46,NE,34,5.8,11.5,91,0.03,CLR,,0.97,WeatherDisplay:10.37,2013-06-14 02:29:00,
2013-06-13 22:34:00,56.6,54.0,29.46,North,0,3.8,3.8,91,0.03,RA,,0.98,WeatherDisplay:10.37,2013-06-14 02:34:00,
2013-06-13 22:39:00,56.5,54.2,29.47,North,357,4.2,7.0,92,0.03,RA,,0.98,WeatherDisplay:10.37,2013-06-14 02:39:00,
2013-06-13 22:45:00,56.3,54.0,29.47,NE,34,5.0,8.1,92,0.04,RA,,0.99,WeatherDisplay:10.37,2013-06-14 02:45:00,
2013-06-13 22:50:00,56.0,53.7,29.47,NNE,32,4.7,9.2,92,0.06,RA,,1.01,WeatherDisplay:10.37,2013-06-14 02:50:00,
2013-06-13 22:55:00,55.9,53.6,29.48,North,359,4.9,10.4,92,0.07,RA,,1.04,WeatherDisplay:10.37,2013-06-14 02:55:00,
2013-06-13 23:00:00,55.7,53.7,29.48,NNE,16,5.4,8.1,93,0.09,RA,,1.06,WeatherDisplay:10.37,2013-06-14 03:00:00,
2013-06-13 23:05:00,55.6,53.6,29.47,North,0,4.8,8.1,93,0.11,RA,,1.07,WeatherDisplay:10.37,2013-06-14 03:05:00,
2013-06-13 23:10:00,55.4,53.4,29.48,NNE,13,2.0,4.6,93,0.12,RA,,1.08,WeatherDisplay:10.37,2013-06-14 03:10:00,
2013-06-13 23:15:00,55.4,53.4,29.48,North,0,4.2,6.9,93,0.13,RA,,1.09,WeatherDisplay:10.37,2013-06-14 03:15:00,
2013-06-13 23:21:00,55.4,53.4,29.48,North,8,3.5,6.9,93,0.13,RA,,1.10,WeatherDisplay:10.37,2013-06-14 03:21:00,
2013-06-13 23:26:00,55.3,53.3,29.47,NNE,13,3.7,6.9,93,0.14,RA,,1.11,WeatherDisplay:10.37,2013-06-14 03:26:00,
2013-06-13 23:31:00,55.3,53.3,29.47,North,357,3.4,4.6,93,0.14,RA,,1.12,WeatherDisplay:10.37,2013-06-14 03:31:00,
2013-06-13 23:36:00,55.3,53.3,29.47,North,354,2.7,11.5,93,0.15,RA,,1.12,WeatherDisplay:10.37,2013-06-14 03:36:00,
2013-06-13 23:42:00,55.3,53.3,29.48,NNW,344,4.8,11.5,93,0.15,RA,,1.13,WeatherDisplay:10.37,2013-06-14 03:42:00,
2013-06-13 23:47:00,55.1,53.1,29.48,North,354,4.9,8.1,93,0.14,RA,,1.14,WeatherDisplay:10.37,2013-06-14 03:47:00,
2013-06-13 23:52:00,55.0,53.0,29.48,North,0,2.9,11.5,93,0.13,RA,,1.14,WeatherDisplay:10.37,2013-06-14 03:52:00,
2013-06-13 23:57:00,55.0,53.0,29.48,North,3,9.1,17.3,93,0.11,RA,,1.15,WeatherDisplay:10.37,2013-06-14 03:57:00,